Location: Blue Sky Observatory
(43.1153°N, 70.9036°W)
Time: 05:21:44
(UTC-05:00)

Amateur Radio Satellites - All Passes

Search period start: 20 December 2014 04:51
Search period end: 21 December 2014 04:51
Location: Blue Sky Observatory, 43.1153°N, 70.9036°W

Satellite Date Start Highest point End Downlink Frequencies (MHz)
Time Altitude Azimuth
SO-50 20 Dec 04:59:01 05:03:44 46° 50° (NE) 05:08:28 436.795
PRISM 20 Dec 05:04:30 05:08:45 87° 77° (ENE) 05:13:00 437.425
Cubesat XI-IV 20 Dec 05:16:25 05:20:51 26° 94° (E) 05:25:16 437.490
STRAND 1 20 Dec 05:19:19 05:24:15 52° 71° (ENE) 05:29:13 437.568
JAS-2 20 Dec 05:25:19 05:30:59 61° 289° (WNW) 05:36:09 435.910
CUBESAT XI-V 20 Dec 05:25:36 05:30:14 65° 74° (ENE) 05:34:51 437.345
VERMONT LUNAR 20 Dec 05:28:44 05:32:13 56° 181° (S) 05:35:41 437.305
PHONESAT 2.4 20 Dec 05:39:16 05:42:50 57° 179° (S) 05:46:25 2401.200-2431.200
CUTE-I 20 Dec 05:49:23 05:54:35 51° 100° (E) 05:59:44 437.470
GONETS M04 20 Dec 06:39:41 06:47:50 40° 289° (WNW) 06:56:03
SO-50 20 Dec 06:40:04 06:44:04 25° 247° (WSW) 06:48:03 436.795
AO-7 20 Dec 06:43:42 06:48:37 17° 314° (NW) 06:53:33 29.400- 29.500
Cubesat XI-IV 20 Dec 06:56:06 07:01:05 42° 292° (WNW) 07:06:02 437.490
STRAND 1 20 Dec 07:00:04 07:03:44 20° 268° (W) 07:07:25 437.568
CUBESAT XI-V 20 Dec 07:05:48 07:08:06 14° 271° (W) 07:10:25 437.345
HO-68 20 Dec 07:06:22 07:09:41 14° 87° (E) 07:12:59 435.675
VERMONT LUNAR 20 Dec 07:07:04 07:10:16 32° 198° (SSW) 07:13:28 437.305
PHONESAT 2.4 20 Dec 07:17:54 07:21:18 38° 196° (SSW) 07:24:42 2401.200-2431.200
CUTE-I 20 Dec 07:30:14 07:34:17 23° 297° (WNW) 07:38:21 437.470
CANX-2 20 Dec 07:33:58 07:36:25 15° 91° (E) 07:38:50 2200.000
BRITE-PL 20 Dec 07:41:24 07:44:58 21° 94° (E) 07:48:43 437.365/2234.400
COMPASS 1 20 Dec 07:57:02 07:59:52 17° 92° (E) 08:02:41 437.405
SEEDS 20 Dec 08:01:22 08:04:48 23° 94° (E) 08:08:11 437.485
CUTE 1.7 + AOD 2 20 Dec 08:03:51 08:07:35 28° 95° (E) 08:11:17 437.475
CUSAT 1 20 Dec 08:04:48 08:05:40 11° 77° (ENE) 08:06:36 437.405
TIGRISAT 20 Dec 08:10:24 08:12:11 12° 60° (ENE) 08:13:59 435.000
GOMX 1 20 Dec 08:10:27 08:14:36 29° 96° (E) 08:18:59 467.674
MaSat-1 20 Dec 08:31:57 08:34:15 70° 117° (ESE) 08:36:29 437.345
UNISAT 6 20 Dec 08:37:18 08:40:46 23° 66° (ENE) 08:44:17 437.425
DOVE 4 20 Dec 08:38:06 08:42:36 41° 98° (E) 08:47:20 437.250
Oscar 11 20 Dec 08:38:35 08:41:59 22° 94° (E) 08:45:21 145.826/435.025
DUCHIFAT 1 20 Dec 08:44:27 08:47:12 17° 64° (ENE) 08:49:58 145.980
BUGSAT 1 20 Dec 08:46:34 08:48:46 14° 63° (ENE) 08:50:58 437.445
UKube-1 20 Dec 08:47:01 08:50:07 19° 93° (E) 08:53:12 .
DANDE 20 Dec 08:51:14 08:54:16 27° 87° (E) 08:58:06 436.750
HO-68 20 Dec 08:51:16 08:58:28 79° 105° (ESE) 09:05:36 435.675
CUBEBUG 2 20 Dec 08:54:34 08:58:15 23° 94° (E) 09:01:58 437.445
AAUSAT CUBESAT 2 20 Dec 08:56:34 09:00:49 68° 101° (ESE) 09:05:02 437.432
QB50P2 20 Dec 08:56:54 09:00:16 24° 67° (ENE) 09:03:39 145.880/145.840
YUBILEINY 20 Dec 08:57:22 09:03:33 21° 61° (ENE) 09:09:42 435.215
PHONESAT 2.4 20 Dec 08:57:43 08:59:24 13° 211° (SSW) 09:01:06 2401.200-2431.200
POLYITAN 1 20 Dec 09:05:16 09:08:52 28° 68° (ENE) 09:12:31 437.675
CINEMA 3 20 Dec 09:07:15 09:11:50 49° 99° (E) 09:16:35 145.822/145.860
ZACube-1 20 Dec 09:07:28 09:11:01 22° 94° (E) 09:14:35 437.345
NANOSAT C BR1 20 Dec 09:07:52 09:11:32 30° 69° (ENE) 09:15:13 145.865
ANTELSAT 20 Dec 09:08:16 09:12:27 47° 71° (ENE) 09:16:47 437.575/2403.000
CANX-2 20 Dec 09:08:26 09:12:39 52° 287° (WNW) 09:16:50 2200.000
VELOX 1 20 Dec 09:09:23 09:10:49 11° 89° (E) 09:12:14 145.980
BRITE-PL 20 Dec 09:19:12 09:23:37 44° 288° (WNW) 09:28:22 437.365/2234.400
QB50P1 20 Dec 09:21:50 09:25:48 42° 71° (ENE) 09:29:47 145.935-145.965
COMPASS 1 20 Dec 09:31:45 09:35:48 43° 288° (WNW) 09:39:49 437.405
UWE-3 20 Dec 09:33:14 09:37:41 48° 99° (E) 09:42:11 435.000/436.395/437.385
FUNcube-1 20 Dec 09:33:50 09:38:06 40° 98° (E) 09:42:25 145.935
O/OREOS (USA 219) 20 Dec 09:35:23 09:39:38 39° 61° (ENE) 09:43:53 437.305
SEEDS 20 Dec 09:36:49 09:40:40 33° 290° (WNW) 09:44:30 437.485
CUTE 1.7 + AOD 2 20 Dec 09:39:47 09:43:26 27° 292° (WNW) 09:47:05 437.475
TIGRISAT 20 Dec 09:43:58 09:48:17 74° 258° (WSW) 09:52:46 435.000
CUSAT 1 20 Dec 09:44:02 09:47:37 55° 285° (WNW) 09:52:27 437.405
GOMX 1 20 Dec 09:48:31 09:52:42 32° 290° (WNW) 09:57:08 467.674
AISAT 20 Dec 09:50:10 09:54:10 32° 97° (E) 09:58:09 437.250
POPSAT HIP 1 20 Dec 09:50:11 09:54:24 88° 76° (ENE) 09:58:38 437.405
DX 1 20 Dec 09:50:33 09:54:55 86° 285° (WNW) 09:59:15 434.975-435.025
DELFI C3 20 Dec 09:50:58 09:55:06 71° 285° (WNW) 09:59:11 145.870
50 SAT 20 Dec 09:52:58 09:56:37 29° 96° (E) 10:00:16 437.505
CUBEBUG 1 20 Dec 09:58:58 10:01:28 15° 91° (E) 10:03:58 437.445
HUMSAT D 20 Dec 10:11:09 10:15:26 60° 101° (E) 10:19:44 437.325/437.525
UNISAT 6 20 Dec 10:13:21 10:17:21 35° 263° (W) 10:21:28 437.425
Oscar 11 20 Dec 10:14:14 10:18:14 35° 290° (WNW) 10:22:12 145.826/435.025
DOVE 4 20 Dec 10:16:24 10:20:10 24° 293° (WNW) 10:24:05 437.250
DUCHIFAT 1 20 Dec 10:18:42 10:22:43 44° 261° (W) 10:26:46 145.980
BUGSAT 1 20 Dec 10:19:51 10:23:51 52° 260° (W) 10:27:51 437.445
UKube-1 20 Dec 10:22:23 10:26:27 40° 290° (WNW) 10:30:29 .
CUBEBUG 2 20 Dec 10:30:44 10:35:02 39° 289° (WNW) 10:39:24 437.445
QB50P2 20 Dec 10:32:17 10:36:03 31° 263° (W) 10:39:50 145.880/145.840
AAUSAT CUBESAT 2 20 Dec 10:34:12 10:35:55 12° 298° (WNW) 10:37:39 437.432
DANDE 20 Dec 10:35:04 10:37:52 20° 297° (WNW) 10:41:19 436.750
HO-68 20 Dec 10:40:10 10:45:25 23° 305° (NW) 10:50:40 435.675
POLYITAN 1 20 Dec 10:41:17 10:44:47 25° 265° (W) 10:48:19 437.675
RS-15 20 Dec 10:42:10 10:52:09 43° 109° (ESE) 11:02:06 29.354- 29.394
ZACube-1 20 Dec 10:43:17 10:47:29 38° 290° (WNW) 10:51:43 437.345
VELOX 1 20 Dec 10:43:27 10:47:52 70° 286° (WNW) 10:52:16 145.980
NANOSAT C BR1 20 Dec 10:43:59 10:47:25 24° 265° (W) 10:50:52 145.865
ESTCUBE 1 20 Dec 10:44:24 10:48:47 49° 100° (E) 10:53:07 437.505/2401.250
CINEMA 3 20 Dec 10:45:18 10:48:44 20° 295° (WNW) 10:52:14 145.822/145.860
ANTELSAT 20 Dec 10:46:43 10:49:33 17° 269° (W) 10:52:26 437.575/2403.000
YUBILEINY 20 Dec 10:52:52 11:01:36 88° 263° (W) 11:10:19 435.215
QB50P1 20 Dec 10:59:06 11:01:53 17° 268° (W) 11:04:41 145.935-145.965
TISAT 1 20 Dec 11:06:10 11:09:17 20° 94° (E) 11:12:24 437.305
SPROUT 20 Dec 11:08:06 11:11:16 20° 93° (E) 11:14:26 437.525
UWE-3 20 Dec 11:10:38 11:13:53 19° 295° (WNW) 11:17:09 435.000/436.395/437.385
FUNcube-1 20 Dec 11:10:46 11:14:12 22° 294° (WNW) 11:17:40 145.935
O/OREOS (USA 219) 20 Dec 11:15:21 11:18:47 22° 258° (WSW) 11:22:13 437.305
AISAT 20 Dec 11:27:02 11:30:40 25° 294° (WNW) 11:34:18 437.250
50 SAT 20 Dec 11:28:21 11:31:43 25° 292° (WNW) 11:35:06 437.505
CUBEBUG 1 20 Dec 11:33:56 11:38:09 51° 288° (WNW) 11:42:20 437.445
HUMSAT D 20 Dec 11:48:26 11:50:46 14° 297° (WNW) 11:53:06 437.325/437.525
Oscar 19 20 Dec 11:51:22 11:56:14 45° 70° (ENE) 12:01:09 437.125/150
Gurwin Techsat 1B 20 Dec 12:01:45 12:04:39 15° 59° (ENE) 12:07:34 435.225
ITAMSAT 1 20 Dec 12:07:10 12:11:22 26° 64° (ENE) 12:15:34 435.822/435.867
BEESAT 20 Dec 12:07:17 12:09:53 15° 90° (E) 12:12:28 436.000
AO-7 20 Dec 12:12:21 12:14:00 11° 38° (NE) 12:15:39 29.400- 29.500
ISS 20 Dec 12:20:11 12:21:47 13° 131° (SE) 12:23:23 145.825
ESTCUBE 1 20 Dec 12:22:15 12:25:16 18° 297° (WNW) 12:28:17 437.505/2401.250
BEESAT 3 20 Dec 12:30:07 12:33:45 31° 115° (ESE) 12:37:27 437.485
AIST 2 20 Dec 12:36:17 12:38:53 16° 110° (ESE) 12:41:31 435.215
TISAT 1 20 Dec 12:41:20 12:45:14 37° 290° (WNW) 12:49:07 437.305
SPROUT 20 Dec 12:43:31 12:47:29 38° 290° (WNW) 12:51:28 437.525
YUBILEINY 20 Dec 12:51:47 12:57:05 18° 284° (WNW) 13:02:24 435.215
RS-15 20 Dec 12:53:21 13:04:05 60° 312° (NW) 13:14:59 29.354- 29.394
BEESAT 2 20 Dec 13:09:08 13:13:14 73° 122° (ESE) 13:17:25 435.950
AUBIESAT-1 20 Dec 13:11:27 13:14:33 19° 96° (E) 13:17:28 437.475
KKS-1 20 Dec 13:16:09 13:18:41 15° 91° (E) 13:21:12 437.445
SWISSCUBE 20 Dec 13:18:17 13:23:04 80° 103° (ESE) 13:27:49 437.505
ITUPSAT 1 20 Dec 13:18:37 13:23:24 74° 103° (ESE) 13:28:09 437.325
PCSat 20 Dec 13:31:29 13:36:52 74° 118° (ESE) 13:42:18 145.827
Oscar 19 20 Dec 13:31:44 13:35:46 23° 267° (W) 13:39:50 437.125/150
M-CUBED/EXP-1 PRIME 20 Dec 13:36:09 13:40:18 39° 102° (ESE) 13:44:05 437.505
Gurwin Techsat 1B 20 Dec 13:38:37 13:43:55 82° 256° (WSW) 13:49:16 435.225
BEESAT 20 Dec 13:43:26 13:48:09 63° 287° (WNW) 13:52:50 436.000
HORYU 2 20 Dec 13:44:46 13:49:02 46° 71° (ENE) 13:53:20 437.375
ITAMSAT 1 20 Dec 13:45:42 13:50:37 43° 261° (W) 13:55:33 435.822/435.867
ISS 20 Dec 13:54:38 13:57:56 82° 328° (NNW) 14:01:15 145.825
JAS-2 20 Dec 13:55:56 13:59:22 14° 54° (NE) 14:02:40 435.910
AO-7 20 Dec 13:56:54 14:04:34 43° 60° (ENE) 14:12:17 29.400- 29.500
BEESAT 3 20 Dec 14:08:19 14:11:56 29° 313° (NW) 14:15:35 437.485
AIST 2 20 Dec 14:12:53 14:17:03 55° 307° (NW) 14:21:18 435.215
AUBIESAT-1 20 Dec 14:45:37 14:49:44 39° 296° (WNW) 14:53:30 437.475
STARS 20 Dec 14:48:00 14:52:28 88° 283° (WNW) 14:56:55 437.465
BEESAT 2 20 Dec 14:49:19 14:51:59 16° 321° (NW) 14:54:40 435.950
KKS-1 20 Dec 14:51:17 14:55:39 55° 287° (WNW) 15:00:02 437.445
GONETS M04 20 Dec 14:51:56 14:58:50 25° 64° (ENE) 15:05:38
AIST 1 20 Dec 14:54:50 14:56:34 12° 84° (E) 14:58:19
SWISSCUBE 20 Dec 14:58:08 15:00:16 13° 301° (WNW) 15:02:24 437.505
ITUPSAT 1 20 Dec 14:58:14 15:00:41 14° 300° (WNW) 15:03:09 437.325
RS-15 20 Dec 15:10:38 15:19:24 26° 343° (NNW) 15:28:22 29.354- 29.394
M-CUBED/EXP-1 PRIME 20 Dec 15:11:40 15:15:01 21° 302° (WNW) 15:18:09 437.505
PCSat 20 Dec 15:16:47 15:20:51 21° 318° (NW) 15:24:57 145.827
HORYU 2 20 Dec 15:22:54 15:25:56 18° 268° (W) 15:28:59 437.375
ISS 20 Dec 15:32:12 15:34:53 23° 346° (NNW) 15:37:35 145.825
CUTE-I 20 Dec 15:35:46 15:38:20 14° 57° (ENE) 15:40:55 437.470
JAS-2 20 Dec 15:35:47 15:43:20 66° 72° (ENE) 15:50:13 435.910
AO-7 20 Dec 15:49:21 15:57:16 47° 260° (W) 16:05:16 29.400- 29.500
AIST 2 20 Dec 15:55:42 15:56:38 11° 328° (NNW) 15:57:36 435.215
MOZHAYETS 4 20 Dec 15:59:22 16:03:18 27° 95° (E) 16:07:11
STARS 20 Dec 16:27:54 16:28:13 10° 301° (WNW) 16:28:31 437.465
AIST 1 20 Dec 16:29:21 16:33:40 60° 280° (W) 16:38:00
Cubesat XI-IV 20 Dec 16:39:17 16:44:22 48° 70° (ENE) 16:49:28 437.490
GONETS M04 20 Dec 16:47:51 16:56:37 76° 266° (W) 17:05:16
PRISM 20 Dec 16:49:07 16:50:27 11° 90° (E) 16:51:46 437.425
ISS 20 Dec 17:09:50 17:12:17 19° 7° (N) 17:14:44 145.825
CUTE-I 20 Dec 17:12:19 17:17:39 89° 255° (WSW) 17:23:00 437.470
JAS-2 20 Dec 17:22:32 17:28:40 26° 267° (W) 17:34:27 435.910
CUBESAT XI-V 20 Dec 17:22:58 17:25:37 15° 90° (E) 17:28:14 437.345
RS-15 20 Dec 17:27:39 17:36:42 27° 19° (NNE) 17:46:01 29.354- 29.394
STRAND 1 20 Dec 17:30:09 17:33:15 16° 91° (E) 17:36:19 437.568
MOZHAYETS 4 20 Dec 17:36:25 17:40:32 32° 291° (WNW) 17:44:36
HO-68 20 Dec 17:37:36 17:41:02 14° 49° (NE) 17:44:28 435.675
MaSat-1 20 Dec 18:01:27 18:03:47 47° 246° (WSW) 18:06:14 437.345
Cubesat XI-IV 20 Dec 18:20:32 18:24:41 23° 267° (W) 18:28:52 437.490
PRISM 20 Dec 18:22:16 18:26:24 62° 287° (WNW) 18:30:28 437.425
CANX-2 20 Dec 18:29:04 18:31:05 13° 62° (ENE) 18:33:07 2200.000
CUSAT 1 20 Dec 18:37:40 18:43:49 26° 66° (ENE) 18:50:30 437.405
ISS 20 Dec 18:46:17 18:49:28 45° 26° (NNE) 18:52:37 145.825
GONETS M04 20 Dec 18:47:33 18:51:49 15° 286° (WNW) 18:56:04
COMPASS 1 20 Dec 18:50:34 18:52:56 15° 63° (ENE) 18:55:19 437.405
BRITE-PL 20 Dec 18:54:23 18:57:39 23° 67° (ENE) 19:00:54 437.365/2234.400
SEEDS 20 Dec 18:55:18 18:58:20 19° 65° (ENE) 19:01:24 437.485
CUTE-I 20 Dec 18:56:51 18:58:26 11° 272° (W) 19:00:01 437.470
CUTE 1.7 + AOD 2 20 Dec 18:58:16 19:01:41 24° 67° (ENE) 19:05:07 437.475
CUBESAT XI-V 20 Dec 18:58:54 19:03:25 57° 287° (WNW) 19:07:54 437.345
STRAND 1 20 Dec 19:07:50 19:12:52 64° 288° (WNW) 19:17:53 437.568
DX 1 20 Dec 19:15:08 19:15:50 10° 59° (ENE) 19:16:32 434.975-435.025
SO-50 20 Dec 19:19:27 19:19:32 10° 106° (ESE) 19:19:38 436.795
HO-68 20 Dec 19:20:20 19:27:25 65° 69° (ENE) 19:34:31 435.675
GOMX 1 20 Dec 19:20:37 19:24:15 30° 69° (ENE) 19:27:55 467.674
DANDE 20 Dec 19:28:32 19:35:48 47° 74° (ENE) 19:44:01 436.750
Oscar 11 20 Dec 19:34:50 19:38:01 20° 65° (ENE) 19:41:13 145.826/435.025
RS-15 20 Dec 19:40:45 19:51:53 63° 49° (NE) 20:03:30 29.354- 29.394
UKube-1 20 Dec 19:43:28 19:46:36 20° 64° (ENE) 19:49:45 .
DOVE 4 20 Dec 19:45:39 19:49:32 41° 71° (ENE) 19:53:30 437.250
AAUSAT CUBESAT 2 20 Dec 19:48:43 19:52:48 52° 73° (ENE) 19:56:56 437.432
BEESAT 2 20 Dec 19:52:16 19:53:29 11° 34° (NNE) 19:54:41 435.950
CUBEBUG 2 20 Dec 19:54:52 19:57:56 20° 65° (ENE) 20:01:05 437.445
CANX-2 20 Dec 20:02:15 20:06:29 64° 259° (W) 20:10:46 2200.000
ZACube-1 20 Dec 20:05:28 20:08:27 19° 65° (ENE) 20:11:29 437.345
VELOX 1 20 Dec 20:08:30 20:10:35 13° 61° (ENE) 20:12:39 145.980
CINEMA 3 20 Dec 20:10:42 20:14:41 46° 72° (ENE) 20:18:46 145.822/145.860
CUSAT 1 20 Dec 20:19:48 20:27:30 79° 263° (W) 20:36:02 437.405
ISS 20 Dec 20:23:08 20:25:54 26° 224° (SW) 20:28:40 145.825
COMPASS 1 20 Dec 20:24:04 20:28:12 55° 260° (W) 20:32:23 437.405
SEEDS 20 Dec 20:29:53 20:33:53 40° 262° (W) 20:37:55 437.485
FUNcube-1 20 Dec 20:31:13 20:35:00 34° 70° (ENE) 20:38:53 145.935
UWE-3 20 Dec 20:31:55 20:35:51 41° 71° (ENE) 20:39:54 435.000/436.395/437.385
BRITE-PL 20 Dec 20:32:24 20:36:04 30° 264° (W) 20:39:44 437.365/2234.400
CUTE 1.7 + AOD 2 20 Dec 20:33:37 20:37:27 32° 264° (W) 20:41:19 437.475
PCSat 20 Dec 20:36:24 20:39:31 15° 37° (NE) 20:42:38 145.827
DELFI C3 20 Dec 20:40:13 20:44:20 83° 76° (ENE) 20:48:29 145.870
50 SAT 20 Dec 20:42:51 20:45:57 22° 67° (ENE) 20:49:05 437.505
DX 1 20 Dec 20:47:03 20:51:23 87° 256° (WSW) 20:55:46 434.975-435.025
BEESAT 3 20 Dec 20:48:44 20:52:27 30° 47° (NE) 20:56:07 437.485
AISAT 20 Dec 20:49:29 20:53:27 34° 69° (ENE) 20:57:26 437.250
SO-50 20 Dec 20:54:43 20:59:15 88° 124° (SE) 21:03:58 436.795
AIST 2 20 Dec 20:56:11 20:59:17 19° 41° (NE) 21:02:21 435.215
CUBEBUG 1 20 Dec 20:56:48 20:59:25 16° 63° (ENE) 21:02:01 437.445
GOMX 1 20 Dec 20:59:12 21:02:27 22° 266° (W) 21:05:44 467.674
ANTELSAT 20 Dec 21:02:54 21:03:11 10° 88° (E) 21:03:27 437.575/2403.000
HUMSAT D 20 Dec 21:04:30 21:08:27 47° 72° (ENE) 21:12:29 437.325/437.525
Oscar 11 20 Dec 21:09:51 21:13:55 39° 262° (W) 21:18:02 145.826/435.025
HO-68 20 Dec 21:09:56 21:15:37 25° 267° (W) 21:21:20 435.675
DANDE 20 Dec 21:12:06 21:19:14 43° 269° (W) 21:27:14 436.750
UKube-1 20 Dec 21:18:24 21:22:29 41° 261° (W) 21:26:36 .
DOVE 4 20 Dec 21:24:56 21:27:34 16° 269° (W) 21:30:14 437.250
AAUSAT CUBESAT 2 20 Dec 21:26:34 21:28:47 14° 270° (W) 21:31:02 437.432
BEESAT 2 20 Dec 21:28:25 21:32:36 62° 54° (NE) 21:36:42 435.950
CUBEBUG 2 20 Dec 21:30:31 21:34:24 37° 263° (W) 21:38:23 437.445
TIGRISAT 20 Dec 21:35:21 21:39:05 23° 94° (E) 21:42:47 435.000
POPSAT HIP 1 20 Dec 21:36:26 21:38:34 14° 91° (E) 21:40:43 437.405
ZACube-1 20 Dec 21:40:37 21:44:32 39° 262° (W) 21:48:34 437.345
VELOX 1 20 Dec 21:42:12 21:46:36 69° 258° (WSW) 21:51:01 145.980
ESTCUBE 1 20 Dec 21:45:02 21:49:26 51° 72° (ENE) 21:53:51 437.505/2401.250
CINEMA 3 20 Dec 21:49:45 21:52:12 15° 269° (W) 21:54:42 145.822/145.860
RS-15 20 Dec 21:53:36 22:03:51 42° 251° (WSW) 22:14:32 29.354- 29.394
TISAT 1 20 Dec 22:00:22 22:03:14 18° 65° (ENE) 22:06:07 437.305
YUBILEINY 20 Dec 22:01:14 22:07:23 22° 79° (ENE) 22:13:31 435.215
BUGSAT 1 20 Dec 22:02:07 22:05:06 20° 94° (E) 22:08:06 437.445
DUCHIFAT 1 20 Dec 22:03:12 22:06:48 26° 95° (E) 22:10:24 145.980
SPROUT 20 Dec 22:03:57 22:06:55 19° 65° (ENE) 22:09:52 437.525
UNISAT 6 20 Dec 22:04:00 22:08:32 45° 99° (E) 22:13:03 437.425
CUSAT 1 20 Dec 22:04:57 22:09:41 17° 278° (W) 22:14:40 437.405
FUNcube-1 20 Dec 22:08:17 22:11:28 21° 267° (W) 22:14:42 145.935
UWE-3 20 Dec 22:09:50 22:12:38 17° 268° (W) 22:15:28 435.000/436.395/437.385
QB50P2 20 Dec 22:16:34 22:20:34 37° 98° (E) 22:24:32 145.880/145.840
50 SAT 20 Dec 22:17:25 22:21:00 31° 264° (W) 22:24:38 437.505
PCSat 20 Dec 22:18:29 22:23:56 72° 58° (ENE) 22:29:20 145.827
POLYITAN 1 20 Dec 22:25:20 22:29:29 47° 99° (E) 22:33:38 437.675
AISAT 20 Dec 22:26:35 22:30:08 23° 265° (W) 22:33:41 437.250
BEESAT 3 20 Dec 22:26:56 22:30:36 30° 245° (WSW) 22:34:13 437.485
NANOSAT C BR1 20 Dec 22:27:27 22:31:35 49° 100° (E) 22:35:43 145.865
CUBEBUG 1 20 Dec 22:31:05 22:35:22 54° 260° (W) 22:39:39 437.445
AIST 2 20 Dec 22:34:03 22:38:18 62° 240° (WSW) 22:42:29 435.215
ANTELSAT 20 Dec 22:35:50 22:40:34 87° 284° (WNW) 22:45:19 437.575/2403.000
SO-50 20 Dec 22:37:28 22:40:29 17° 324° (NW) 22:43:34 436.795
QB50P1 20 Dec 22:41:49 22:46:05 72° 102° (ESE) 22:50:20 145.935-145.965
HUMSAT D 20 Dec 22:42:08 22:44:32 15° 269° (W) 22:46:58 437.325/437.525
SWISSCUBE 20 Dec 22:51:16 22:53:27 13° 59° (ENE) 22:55:39 437.505
ITUPSAT 1 20 Dec 22:52:10 22:54:02 12° 59° (ENE) 22:55:54 437.325
M-CUBED/EXP-1 PRIME 20 Dec 22:55:13 22:56:08 11° 51° (NE) 22:57:02 437.505
BEESAT 2 20 Dec 23:08:12 23:10:20 14° 251° (WSW) 23:12:27 435.950
POPSAT HIP 1 20 Dec 23:10:38 23:14:48 55° 287° (WNW) 23:18:59 437.405
TIGRISAT 20 Dec 23:11:33 23:15:56 40° 290° (WNW) 23:20:19 435.000
BEESAT 20 Dec 23:14:44 23:18:11 20° 63° (ENE) 23:21:40 436.000
ESTCUBE 1 20 Dec 23:23:46 23:26:36 16° 269° (W) 23:29:27 437.505/2401.250
TISAT 1 20 Dec 23:34:46 23:38:46 42° 261° (W) 23:42:46 437.305
BUGSAT 1 20 Dec 23:37:01 23:40:41 34° 290° (WNW) 23:44:22 437.445
SPROUT 20 Dec 23:38:38 23:42:41 42° 261° (W) 23:46:47 437.525
DUCHIFAT 1 20 Dec 23:38:59 23:42:38 28° 292° (WNW) 23:46:16 145.980
UNISAT 6 20 Dec 23:41:29 23:45:01 21° 295° (WNW) 23:48:33 437.425
O/OREOS (USA 219) 20 Dec 23:48:44 23:52:49 37° 106° (ESE) 23:56:56 437.305
QB50P2 20 Dec 23:53:03 23:56:14 21° 294° (WNW) 23:59:25 145.880/145.840
YUBILEINY 20 Dec 23:54:22 00:03:08 80° 279° (W) 00:11:54 435.215
AUBIESAT-1 21 Dec 00:00:06 00:04:30 36° 63° (ENE) 00:08:57 437.475
POLYITAN 1 21 Dec 00:02:16 00:05:05 17° 296° (WNW) 00:07:53 437.675
Oscar 19 21 Dec 00:03:20 00:06:12 15° 90° (E) 00:09:03 437.125/150
PCSat 21 Dec 00:03:23 00:06:42 17° 256° (WSW) 00:10:01 145.827
NANOSAT C BR1 21 Dec 00:04:25 00:07:05 17° 296° (WNW) 00:09:46 145.865
STARS 21 Dec 00:14:03 00:14:39 10° 59° (ENE) 00:15:16 437.465
ANTELSAT 21 Dec 00:15:18 00:16:37 11° 301° (WNW) 00:17:56 437.575/2403.000
KKS-1 21 Dec 00:15:51 00:18:35 16° 63° (ENE) 00:21:20 437.445
QB50P1 21 Dec 00:19:47 00:21:24 12° 299° (WNW) 00:23:01 145.935-145.965
M-CUBED/EXP-1 PRIME 21 Dec 00:25:24 00:30:12 67° 69° (ENE) 00:35:06 437.505
SWISSCUBE 21 Dec 00:25:51 00:30:39 81° 257° (WSW) 00:35:29 437.505
ITUPSAT 1 21 Dec 00:26:23 00:31:12 87° 256° (WSW) 00:36:03 437.325
BEESAT 21 Dec 00:51:03 00:55:41 49° 260° (W) 01:00:21 436.000
O/OREOS (USA 219) 21 Dec 01:28:43 01:32:19 24° 304° (NW) 01:35:57 437.305
AUBIESAT-1 21 Dec 01:35:13 01:39:25 30° 260° (W) 01:43:42 437.475
VERMONT LUNAR 21 Dec 01:36:06 01:37:04 11° 147° (SSE) 01:38:02 437.305
Oscar 19 21 Dec 01:40:52 01:46:03 71° 287° (WNW) 01:51:13 437.125/150
STARS 21 Dec 01:46:02 01:50:25 89° 256° (WSW) 01:54:50 437.465
KKS-1 21 Dec 01:50:29 01:54:48 54° 260° (W) 01:59:10 437.445
Gurwin Techsat 1B 21 Dec 01:54:05 01:59:00 37° 97° (E) 02:03:52 435.225
YUBILEINY 21 Dec 01:56:01 02:01:28 18° 301° (WNW) 02:06:57 435.215
ITAMSAT 1 21 Dec 01:57:11 02:02:20 63° 102° (ESE) 02:07:27 435.822/435.867
M-CUBED/EXP-1 PRIME 21 Dec 02:02:43 02:05:36 16° 265° (W) 02:08:32 437.505
AIST 1 21 Dec 02:35:53 02:39:49 34° 76° (ENE) 02:43:43
MOZHAYETS 4 21 Dec 03:02:25 03:06:25 29° 68° (ENE) 03:10:26
VERMONT LUNAR 21 Dec 03:11:31 03:14:45 34° 163° (SSE) 03:18:00 437.305
HORYU 2 21 Dec 03:11:41 03:16:14 83° 103° (ESE) 03:20:45 437.375
Oscar 19 21 Dec 03:23:43 03:24:27 10° 305° (NW) 03:25:10 437.125/150
PHONESAT 2.4 21 Dec 03:27:04 03:30:20 32° 161° (SSE) 03:33:36 2401.200-2431.200
Gurwin Techsat 1B 21 Dec 03:34:16 03:38:50 30° 294° (WNW) 03:43:23 435.225
ITAMSAT 1 21 Dec 03:37:51 03:41:19 19° 299° (WNW) 03:44:48 435.822/435.867
PRISM 21 Dec 03:41:31 03:42:56 12° 60° (ENE) 03:44:21 437.425
SO-50 21 Dec 03:45:36 03:49:06 19° 38° (NE) 03:52:36 436.795
AO-7 21 Dec 03:49:11 03:57:27 59° 103° (ESE) 04:05:38 29.400- 29.500
GONETS M04 21 Dec 03:55:14 04:02:09 27° 81° (E) 04:09:03
AIST 1 21 Dec 04:14:09 04:17:13 20° 273° (W) 04:20:17
CUBESAT XI-V 21 Dec 04:27:37 04:30:45 18° 64° (ENE) 04:33:52 437.345
JAS-2 21 Dec 04:30:26 04:35:51 46° 98° (E) 04:40:52 435.910
MOZHAYETS 4 21 Dec 04:39:29 04:43:34 30° 265° (W) 04:47:41
